Year,Month,Day,Hour,Minute,Value (Times are PST for insolation in W/m^2)
2021,04,27,12,00,738.00
2021,04,27,12,01,738.00
2021,04,27,12,02,737.50
2021,04,27,12,03,733.00
2021,04,27,12,04,722.40
2021,04,27,12,05,529.30
2021,04,27,12,06,497.00
2021,04,27,12,07,509.10
2021,04,27,12,08,726.50
2021,04,27,12,09,730.20
2021,04,27,12,10,713.40
2021,04,27,12,11,699.40
2021,04,27,12,12,709.00
2021,04,27,12,13,680.60
2021,04,27,12,14,669.80
2021,04,27,12,15,685.10
2021,04,27,12,16,674.00
2021,04,27,12,17,647.00
2021,04,27,12,18,647.00
2021,04,27,12,19,646.10
2021,04,27,12,20,638.50
2021,04,27,12,21,635.30
2021,04,27,12,22,572.90
2021,04,27,12,23,636.20
2021,04,27,12,24,646.60
2021,04,27,12,25,643.20
2021,04,27,12,26,645.20
2021,04,27,12,27,647.80
2021,04,27,12,28,627.20
2021,04,27,12,29,557.20
2021,04,27,12,30,639.80
2021,04,27,12,31,634.70
2021,04,27,12,32,608.00
2021,04,27,12,33,635.00
2021,04,27,12,34,632.80
2021,04,27,12,35,609.40
2021,04,27,12,36,550.00
2021,04,27,12,37,596.60
2021,04,27,12,38,584.00
2021,04,27,12,39,582.00
2021,04,27,12,40,565.10
2021,04,27,12,41,584.00
2021,04,27,12,42,583.40
2021,04,27,12,43,577.90
2021,04,27,12,44,571.30
2021,04,27,12,45,528.10
2021,04,27,12,46,605.40
2021,04,27,12,47,645.70
2021,04,27,12,48,651.80
2021,04,27,12,49,648.90
2021,04,27,12,50,647.70
2021,04,27,12,51,660.80
2021,04,27,12,52,656.40
2021,04,27,12,53,664.70
2021,04,27,12,54,678.10
2021,04,27,12,55,689.20
2021,04,27,12,56,692.20
2021,04,27,12,57,675.30
2021,04,27,12,58,658.70
2021,04,27,12,59,657.20
2021,04,27,13,00,680.10
2021,04,27,13,01,689.90
2021,04,27,13,02,681.80
2021,04,27,13,03,698.00
2021,04,27,13,04,699.00
2021,04,27,13,05,707.70
2021,04,27,13,06,706.20
2021,04,27,13,07,715.30
2021,04,27,13,08,698.40
2021,04,27,13,09,684.90
2021,04,27,13,10,690.10
2021,04,27,13,11,668.10
2021,04,27,13,12,705.00
2021,04,27,13,13,684.10
2021,04,27,13,14,491.90
2021,04,27,13,15,452.60
2021,04,27,13,16,438.50
2021,04,27,13,17,506.00
2021,04,27,13,18,527.50
2021,04,27,13,19,721.00
2021,04,27,13,20,708.20
2021,04,27,13,21,463.90
2021,04,27,13,22,460.00
2021,04,27,13,23,450.00
2021,04,27,13,24,450.40
2021,04,27,13,25,454.10
2021,04,27,13,26,454.70
2021,04,27,13,27,450.20
2021,04,27,13,28,433.00
2021,04,27,13,29,423.60
2021,04,27,13,30,420.70
2021,04,27,13,31,427.70
2021,04,27,13,32,436.80
2021,04,27,13,33,463.80
2021,04,27,13,34,494.10
2021,04,27,13,35,471.50
2021,04,27,13,36,430.30
2021,04,27,13,37,419.50
2021,04,27,13,38,434.00
2021,04,27,13,39,434.00
2021,04,27,13,40,439.60
2021,04,27,13,41,490.00
2021,04,27,13,42,521.50
2021,04,27,13,43,805.00
2021,04,27,13,44,768.30
2021,04,27,13,45,438.30
2021,04,27,13,46,443.00
2021,04,27,13,47,443.00
2021,04,27,13,48,454.20
2021,04,27,13,49,545.90
2021,04,27,13,50,464.00
2021,04,27,13,51,464.00
2021,04,27,13,52,464.00
2021,04,27,13,53,464.00
2021,04,27,13,54,464.00
2021,04,27,13,55,495.60
2021,04,27,13,56,780.00
2021,04,27,13,57,780.00
2021,04,27,13,58,784.80
2021,04,27,13,59,825.40
2021,04,27,14,00,802.00
2021,04,27,14,01,802.00
2021,04,27,14,02,797.80
2021,04,27,14,03,725.00
2021,04,27,14,04,751.50
2021,04,27,14,05,729.60
2021,04,27,14,06,732.90
2021,04,27,14,07,713.80
2021,04,27,14,08,711.50
2021,04,27,14,09,707.50
2021,04,27,14,10,711.30
2021,04,27,14,11,704.60
2021,04,27,14,12,699.80
2021,04,27,14,13,686.90
2021,04,27,14,14,664.00
2021,04,27,14,15,632.00
2021,04,27,14,16,668.20
2021,04,27,14,17,670.00
2021,04,27,14,18,670.00
2021,04,27,14,19,668.70
2021,04,27,14,20,655.50
2021,04,27,14,21,641.50
2021,04,27,14,22,632.60
2021,04,27,14,23,628.20
2021,04,27,14,24,620.40
2021,04,27,14,25,614.10
2021,04,27,14,26,603.80
2021,04,27,14,27,585.70
2021,04,27,14,28,600.30
2021,04,27,14,29,593.50
2021,04,27,14,30,583.10
2021,04,27,14,31,574.80
2021,04,27,14,32,572.30
2021,04,27,14,33,565.10
2021,04,27,14,34,555.60
2021,04,27,14,35,542.50
2021,04,27,14,36,539.00
2021,04,27,14,37,547.30
2021,04,27,14,38,538.60
2021,04,27,14,39,514.70
2021,04,27,14,40,491.40
2021,04,27,14,41,469.90
2021,04,27,14,42,485.80
2021,04,27,14,43,475.00
2021,04,27,14,44,476.20
2021,04,27,14,45,487.30
2021,04,27,14,46,491.60
2021,04,27,14,47,506.00
2021,04,27,14,48,505.70
2021,04,27,14,49,502.40
2021,04,27,14,50,493.40
2021,04,27,14,51,461.80
2021,04,27,14,52,468.20
2021,04,27,14,53,461.80
2021,04,27,14,54,467.60
2021,04,27,14,55,455.40
2021,04,27,14,56,459.70
2021,04,27,14,57,465.30
2021,04,27,14,58,460.30
2021,04,27,14,59,481.50
2021,04,27,15,00,467.60
2021,04,27,15,01,465.60
2021,04,27,15,02,479.30
2021,04,27,15,03,472.60
2021,04,27,15,04,469.90
2021,04,27,15,05,477.30
2021,04,27,15,06,470.80
2021,04,27,15,07,468.50
2021,04,27,15,08,463.50
2021,04,27,15,09,458.70
2021,04,27,15,10,453.40
2021,04,27,15,11,448.60
2021,04,27,15,12,453.40
2021,04,27,15,13,447.10
2021,04,27,15,14,438.70
2021,04,27,15,15,434.40
2021,04,27,15,16,419.50
2021,04,27,15,17,414.80
2021,04,27,15,18,412.70
2021,04,27,15,19,409.40
2021,04,27,15,20,403.20
2021,04,27,15,21,395.40
2021,04,27,15,22,390.60
2021,04,27,15,23,396.10
2021,04,27,15,24,396.90
2021,04,27,15,25,396.10
2021,04,27,15,26,396.10
2021,04,27,15,27,387.50
2021,04,27,15,28,383.40
2021,04,27,15,29,387.50
2021,04,27,15,30,392.00
2021,04,27,15,31,391.80
2021,04,27,15,32,389.80
2021,04,27,15,33,388.00
2021,04,27,15,34,388.00
2021,04,27,15,35,388.20
2021,04,27,15,36,390.70
2021,04,27,15,37,396.50
2021,04,27,15,38,391.30
2021,04,27,15,39,384.60
2021,04,27,15,40,380.00
2021,04,27,15,41,370.50
2021,04,27,15,42,366.00
2021,04,27,15,43,366.80
2021,04,27,15,44,374.70
2021,04,27,15,45,381.40
2021,04,27,15,46,385.20
2021,04,27,15,47,386.40
2021,04,27,15,48,380.40
2021,04,27,15,49,369.20
2021,04,27,15,50,371.30
2021,04,27,15,51,374.40
2021,04,27,15,52,378.00
2021,04,27,15,53,378.30
2021,04,27,15,54,379.80
2021,04,27,15,55,368.10
2021,04,27,15,56,358.80
2021,04,27,15,57,346.80
2021,04,27,15,58,335.10
2021,04,27,15,59,326.80
2021,04,27,16,00,325.40
2021,04,27,16,01,328.60
2021,04,27,16,02,324.30
2021,04,27,16,03,317.60
2021,04,27,16,04,310.30
2021,04,27,16,05,303.50
2021,04,27,16,06,298.50
2021,04,27,16,07,293.60
2021,04,27,16,08,289.70
2021,04,27,16,09,287.00
2021,04,27,16,10,287.10
2021,04,27,16,11,288.20
2021,04,27,16,12,290.00
2021,04,27,16,13,290.20
2021,04,27,16,14,292.20
2021,04,27,16,15,294.00
2021,04,27,16,16,294.30
2021,04,27,16,17,297.70
2021,04,27,16,18,304.40
2021,04,27,16,19,309.00
2021,04,27,16,20,318.50
2021,04,27,16,21,323.40
2021,04,27,16,22,327.20
2021,04,27,16,23,329.00
2021,04,27,16,24,328.40
2021,04,27,16,25,322.00
2021,04,27,16,26,311.90
2021,04,27,16,27,301.50
2021,04,27,16,28,296.00
2021,04,27,16,29,286.20
2021,04,27,16,30,278.70
2021,04,27,16,31,275.90
2021,04,27,16,32,273.80
2021,04,27,16,33,272.60
2021,04,27,16,34,278.50
2021,04,27,16,35,282.80
2021,04,27,16,36,281.00
2021,04,27,16,37,280.70
2021,04,27,16,38,277.60
2021,04,27,16,39,273.60
2021,04,27,16,40,266.50
2021,04,27,16,41,261.50
2021,04,27,16,42,256.40
2021,04,27,16,43,250.70
2021,04,27,16,44,247.30
2021,04,27,16,45,240.30
2021,04,27,16,46,232.90
2021,04,27,16,47,222.00
2021,04,27,16,48,211.70
2021,04,27,16,49,199.00
2021,04,27,16,50,189.60
2021,04,27,16,51,182.60
2021,04,27,16,52,179.00
2021,04,27,16,53,179.20
2021,04,27,16,54,181.20
2021,04,27,16,55,183.50
2021,04,27,16,56,188.70
2021,04,27,16,57,195.70
2021,04,27,16,58,202.50
2021,04,27,16,59,207.00
2021,04,27,17,00,207.00
2021,04,27,17,01,206.70
2021,04,27,17,02,203.60
2021,04,27,17,03,199.70
2021,04,27,17,04,196.60
2021,04,27,17,05,192.50
2021,04,27,17,06,187.50
2021,04,27,17,07,182.50
2021,04,27,17,08,177.60
2021,04,27,17,09,173.80
2021,04,27,17,10,171.90
2021,04,27,17,11,170.80
2021,04,27,17,12,168.80
2021,04,27,17,13,166.80
2021,04,27,17,14,165.00
2021,04,27,17,15,164.80
2021,04,27,17,16,163.00
2021,04,27,17,17,163.20
2021,04,27,17,18,165.20
2021,04,27,17,19,167.50
2021,04,27,17,20,172.60
2021,04,27,17,21,178.70
2021,04,27,17,22,185.50
2021,04,27,17,23,190.20
2021,04,27,17,24,192.00
2021,04,27,17,25,191.60
2021,04,27,17,26,187.70
2021,04,27,17,27,184.40
2021,04,27,17,28,178.70
2021,04,27,17,29,175.50
2021,04,27,17,30,170.60
2021,04,27,17,31,166.50
2021,04,27,17,32,161.40
2021,04,27,17,33,155.70
2021,04,27,17,34,152.60
2021,04,27,17,35,148.70
2021,04,27,17,36,145.60
2021,04,27,17,37,141.90
2021,04,27,17,38,140.60
2021,04,27,17,39,137.00
2021,04,27,17,40,136.80
2021,04,27,17,41,135.00
2021,04,27,17,42,134.90
2021,04,27,17,43,134.10
2021,04,27,17,44,135.00
2021,04,27,17,45,135.00
2021,04,27,17,46,134.90
2021,04,27,17,47,133.90
2021,04,27,17,48,131.80
2021,04,27,17,49,129.70
2021,04,27,17,50,126.80
2021,04,27,17,51,125.00
2021,04,27,17,52,124.80
2021,04,27,17,53,123.00
2021,04,27,17,54,123.00
2021,04,27,17,55,122.80
2021,04,27,17,56,121.00
2021,04,27,17,57,121.20
2021,04,27,17,58,123.20
2021,04,27,17,59,125.20
2021,04,27,18,00,127.00
2021,04,27,18,01,127.10
2021,04,27,18,02,128.40
2021,04,27,18,03,132.70
2021,04,27,18,04,139.50
2021,04,27,18,05,144.40
2021,04,27,18,06,148.10
2021,04,27,18,07,148.90
2021,04,27,18,08,147.80
2021,04,27,18,09,146.00
2021,04,27,18,10,145.80
2021,04,27,18,11,143.70
2021,04,27,18,12,140.80
2021,04,27,18,13,139.00
2021,04,27,18,14,139.00
2021,04,27,18,15,139.00
2021,04,27,18,16,138.80
2021,04,27,18,17,136.70
2021,04,27,18,18,133.40
2021,04,27,18,19,127.50
2021,04,27,18,20,122.50
2021,04,27,18,21,112.10
2021,04,27,18,22,103.30
2021,04,27,18,23,96.60
2021,04,27,18,24,92.70
2021,04,27,18,25,89.90
2021,04,27,18,26,87.60
2021,04,27,18,27,84.00
2021,04,27,18,28,84.20
2021,04,27,18,29,86.10
2021,04,27,18,30,88.00
2021,04,27,18,31,87.80
2021,04,27,18,32,85.80
2021,04,27,18,33,84.00
2021,04,27,18,34,83.90
2021,04,27,18,35,83.00
2021,04,27,18,36,83.10
2021,04,27,18,37,84.20
2021,04,27,18,38,86.00
2021,04,27,18,39,85.70
2021,04,27,18,40,82.40
2021,04,27,18,41,76.70
2021,04,27,18,42,73.60
2021,04,27,18,43,69.70
2021,04,27,18,44,66.80
2021,04,27,18,45,64.70
2021,04,27,18,46,61.60
2021,04,27,18,47,57.60
2021,04,27,18,48,53.70
2021,04,27,18,49,50.80
2021,04,27,18,50,48.80
2021,04,27,18,51,47.00
2021,04,27,18,52,47.00
2021,04,27,18,53,47.00
2021,04,27,18,54,46.90
2021,04,27,18,55,46.00
2021,04,27,18,56,45.80
2021,04,27,18,57,43.80
2021,04,27,18,58,41.80
2021,04,27,18,59,39.90
2021,04,27,19,00,38.60
2021,04,27,19,01,34.70
2021,04,27,19,02,31.80
2021,04,27,19,03,29.80
2021,04,27,19,04,28.00
2021,04,27,19,05,28.00
2021,04,27,19,06,28.00
2021,04,27,19,07,28.00
2021,04,27,19,08,28.00
2021,04,27,19,09,28.20
2021,04,27,19,10,30.20
2021,04,27,19,11,32.10
2021,04,27,19,12,33.40
2021,04,27,19,13,37.20
2021,04,27,19,14,39.00
2021,04,27,19,15,39.00
2021,04,27,19,16,39.00
2021,04,27,19,17,39.00
2021,04,27,19,18,38.80
2021,04,27,19,19,36.80
2021,04,27,19,20,34.90
2021,04,27,19,21,33.00
2021,04,27,19,22,32.90
2021,04,27,19,23,32.00
2021,04,27,19,24,31.80
2021,04,27,19,25,29.80
2021,04,27,19,26,28.00
2021,04,27,19,27,28.00
2021,04,27,19,28,27.80
2021,04,27,19,29,25.90
2021,04,27,19,30,24.80
2021,04,27,19,31,23.00
2021,04,27,19,32,23.00
2021,04,27,19,33,23.00
2021,04,27,19,34,23.00
2021,04,27,19,35,23.00
2021,04,27,19,36,23.20
2021,04,27,19,37,25.00
2021,04,27,19,38,24.80
2021,04,27,19,39,23.00
2021,04,27,19,40,22.80
2021,04,27,19,41,20.80
2021,04,27,19,42,19.00
2021,04,27,19,43,18.90
2021,04,27,19,44,18.00
2021,04,27,19,45,17.80
2021,04,27,19,46,15.80
2021,04,27,19,47,14.00
2021,04,27,19,48,14.00
2021,04,27,19,49,13.80
2021,04,27,19,50,12.00
2021,04,27,19,51,12.00
2021,04,27,19,52,12.00
2021,04,27,19,53,11.90
2021,04,27,19,54,11.00
2021,04,27,19,55,11.00
2021,04,27,19,56,10.80
2021,04,27,19,57,9.00
2021,04,27,19,58,9.00
2021,04,27,19,59,9.00
2021,04,27,20,00,8.80
2021,04,27,20,01,7.00
2021,04,27,20,02,7.00
2021,04,27,20,03,7.00
2021,04,27,20,04,7.00
2021,04,27,20,05,7.00
2021,04,27,20,06,7.00
2021,04,27,20,07,6.80
2021,04,27,20,08,5.00
2021,04,27,20,09,5.00
2021,04,27,20,10,5.00
2021,04,27,20,11,4.50
2021,04,27,20,12,0.00
2021,04,27,20,13,0.00
2021,04,27,20,14,0.00
2021,04,27,20,15,0.00
2021,04,27,20,16,0.00
2021,04,27,20,17,0.00
2021,04,27,20,18,0.00
2021,04,27,20,19,0.00
2021,04,27,20,20,0.00
2021,04,27,20,21,0.00
2021,04,27,20,22,0.00
2021,04,27,20,23,0.00
2021,04,27,20,24,0.00
2021,04,27,20,25,0.00
2021,04,27,20,26,0.00
2021,04,27,20,27,0.00
2021,04,27,20,28,0.00
2021,04,27,20,29,0.00
2021,04,27,20,30,0.00
2021,04,27,20,31,0.00
2021,04,27,20,32,0.00
2021,04,27,20,33,0.00
2021,04,27,20,34,0.00
2021,04,27,20,35,0.00
2021,04,27,20,36,0.00
2021,04,27,20,37,0.00
2021,04,27,20,38,0.00
2021,04,27,20,39,0.00
2021,04,27,20,40,0.00
2021,04,27,20,41,0.00
2021,04,27,20,42,0.00
2021,04,27,20,43,0.00
2021,04,27,20,44,0.00
2021,04,27,20,45,0.00
2021,04,27,20,46,0.00
2021,04,27,20,47,0.00
2021,04,27,20,48,0.00
2021,04,27,20,49,0.00
2021,04,27,20,50,0.00
2021,04,27,20,51,0.00
2021,04,27,20,52,0.00
2021,04,27,20,53,0.00
2021,04,27,20,54,0.00
2021,04,27,20,55,0.00
2021,04,27,20,56,0.00
2021,04,27,20,57,0.00
2021,04,27,20,58,0.00
2021,04,27,20,59,0.00
2021,04,27,21,00,0.00
2021,04,27,21,01,0.00
2021,04,27,21,02,0.00
2021,04,27,21,03,0.00
2021,04,27,21,04,0.00
2021,04,27,21,05,0.00
2021,04,27,21,06,0.00
2021,04,27,21,07,0.00
2021,04,27,21,08,0.00
2021,04,27,21,09,0.00
2021,04,27,21,10,0.00
2021,04,27,21,11,0.00
2021,04,27,21,12,0.00
2021,04,27,21,13,0.00
2021,04,27,21,14,0.00
2021,04,27,21,15,0.00
2021,04,27,21,16,0.00
2021,04,27,21,17,0.00
2021,04,27,21,18,0.00
2021,04,27,21,19,0.00
2021,04,27,21,20,0.00
2021,04,27,21,21,0.00
2021,04,27,21,22,0.00
2021,04,27,21,23,0.00
2021,04,27,21,24,0.00
2021,04,27,21,25,0.00
2021,04,27,21,26,0.00
2021,04,27,21,27,0.00
2021,04,27,21,28,0.00
2021,04,27,21,29,0.00
2021,04,27,21,30,0.00
2021,04,27,21,31,0.00
2021,04,27,21,32,0.00
2021,04,27,21,33,0.00
2021,04,27,21,34,0.00
2021,04,27,21,35,0.00
2021,04,27,21,36,0.00
2021,04,27,21,37,0.00
2021,04,27,21,38,0.00
2021,04,27,21,39,0.00
2021,04,27,21,40,0.00
2021,04,27,21,41,0.00
2021,04,27,21,42,0.00
2021,04,27,21,43,0.00
2021,04,27,21,44,0.00
2021,04,27,21,45,0.00
2021,04,27,21,46,0.00
2021,04,27,21,47,0.00
2021,04,27,21,48,0.00
2021,04,27,21,49,0.00
2021,04,27,21,50,0.00
2021,04,27,21,51,0.00
2021,04,27,21,52,0.00
2021,04,27,21,53,0.00
2021,04,27,21,54,0.00
2021,04,27,21,55,0.00
2021,04,27,21,56,0.00
2021,04,27,21,57,0.00
2021,04,27,21,58,0.00
2021,04,27,21,59,0.00
2021,04,27,22,00,0.00
2021,04,27,22,01,0.00
2021,04,27,22,02,0.00
2021,04,27,22,03,0.00
2021,04,27,22,04,0.00
2021,04,27,22,05,0.00
2021,04,27,22,06,0.00
2021,04,27,22,07,0.00
2021,04,27,22,08,0.00
2021,04,27,22,09,0.00
2021,04,27,22,10,0.00
2021,04,27,22,11,0.00
2021,04,27,22,12,0.00
2021,04,27,22,13,0.00
2021,04,27,22,14,0.00
2021,04,27,22,15,0.00
2021,04,27,22,16,0.00
2021,04,27,22,17,0.00
2021,04,27,22,18,0.00
2021,04,27,22,19,0.00
2021,04,27,22,20,0.00
2021,04,27,22,21,0.00
2021,04,27,22,22,0.00
2021,04,27,22,23,0.00
2021,04,27,22,24,0.00
2021,04,27,22,25,0.00
2021,04,27,22,26,0.00
2021,04,27,22,27,0.00
2021,04,27,22,28,0.00
2021,04,27,22,29,0.00
2021,04,27,22,30,0.00
2021,04,27,22,31,0.00
2021,04,27,22,32,0.00
2021,04,27,22,33,0.00
2021,04,27,22,34,0.00
2021,04,27,22,35,0.00
2021,04,27,22,36,0.00
2021,04,27,22,37,0.00
2021,04,27,22,38,0.00
2021,04,27,22,39,0.00
2021,04,27,22,40,0.00
2021,04,27,22,41,0.00
2021,04,27,22,42,0.00
2021,04,27,22,43,0.00
2021,04,27,22,44,0.00
2021,04,27,22,45,0.00
2021,04,27,22,46,0.00
2021,04,27,22,47,0.00
2021,04,27,22,48,0.00
2021,04,27,22,49,0.00
2021,04,27,22,50,0.00
2021,04,27,22,51,0.00
2021,04,27,22,52,0.00
2021,04,27,22,53,0.00
2021,04,27,22,54,0.00
2021,04,27,22,55,0.00
2021,04,27,22,56,0.00
2021,04,27,22,57,0.00
2021,04,27,22,58,0.00
2021,04,27,22,59,0.00
2021,04,27,23,00,0.00
2021,04,27,23,01,0.00
2021,04,27,23,02,0.00
2021,04,27,23,03,0.00
2021,04,27,23,04,0.00
2021,04,27,23,05,0.00
2021,04,27,23,06,0.00
2021,04,27,23,07,0.00
2021,04,27,23,08,0.00
2021,04,27,23,09,0.00
2021,04,27,23,10,0.00
2021,04,27,23,11,0.00
2021,04,27,23,12,0.00
2021,04,27,23,13,0.00
2021,04,27,23,14,0.00
2021,04,27,23,15,0.00
2021,04,27,23,16,0.00
2021,04,27,23,17,0.00
2021,04,27,23,18,0.00
2021,04,27,23,19,0.00
2021,04,27,23,20,0.00
2021,04,27,23,21,0.00
2021,04,27,23,22,0.00
2021,04,27,23,23,0.00
2021,04,27,23,24,0.00
2021,04,27,23,25,0.00
2021,04,27,23,26,0.00
2021,04,27,23,27,0.00
2021,04,27,23,28,0.00
2021,04,27,23,29,0.00
2021,04,27,23,30,0.00
2021,04,27,23,31,0.00
2021,04,27,23,32,0.00
2021,04,27,23,33,0.00
2021,04,27,23,34,0.00
2021,04,27,23,35,0.00
2021,04,27,23,36,0.00
2021,04,27,23,37,0.00
2021,04,27,23,38,0.00
2021,04,27,23,39,0.00
2021,04,27,23,40,0.00
2021,04,27,23,41,0.00
2021,04,27,23,42,0.00
2021,04,27,23,43,0.00
2021,04,27,23,44,0.00
2021,04,27,23,45,0.00
2021,04,27,23,46,0.00
2021,04,27,23,47,0.00
2021,04,27,23,48,0.00
2021,04,27,23,49,0.00
2021,04,27,23,50,0.00
2021,04,27,23,51,0.00
2021,04,27,23,52,0.00
2021,04,27,23,53,0.00
2021,04,27,23,54,0.00
2021,04,27,23,55,0.00
2021,04,27,23,56,0.00
2021,04,27,23,57,0.00
2021,04,27,23,58,0.00
2021,04,27,23,59,0.00
